Simultaneous Nadir Overpasses (SNOs) Predictions

Prediction of SNOs between AQUA and NPP Satellite Orbit:

Table of predicted SNOs for the next 14.0 days since TLE Epoch: 6/6/2014
Index Date (AQUA) Time (AQUA) Lat,Lon (AQUA) SZA (AQUA ) Date (NPP) Time (NPP) Lat,Lon (NPP) SZA (NPP ) Distance(km) Time Diff (sec)
1 06/09/2014 10:03:54 -58.12, 66.32 86.73 06/09/2014 10:03:02 -58.12, 66.32 86.67 0.11 52
2 06/09/2014 10:51:36 64.04,-121.81 87.39 06/09/2014 10:51:59 64.04,-121.82 87.36 0.65 23
3 06/12/2014 02:19:35 -60.89,-176.01 89.62 06/12/2014 02:19:11 -60.90,-175.98 89.60 1.91 24
4 06/12/2014 03:07:43 65.28, -4.82 85.99 06/12/2014 03:08:35 65.27, -4.86 85.94 1.84 52
5 06/14/2014 17:48:16 54.90, 128.66 96.21 06/14/2014 17:47:07 54.90, 128.66 96.30 0.53 69
6 06/14/2014 18:35:32 -62.64, -58.84 91.46 06/14/2014 18:35:37 -62.64, -58.82 91.48 1.46 5
7 06/14/2014 19:18:50 80.90, 157.76 67.45 06/14/2014 19:20:03 80.47, 159.09 67.23 53.92 73
8 06/17/2014 10:03:59 57.53,-114.02 93.57 06/17/2014 10:03:19 57.53,-114.03 93.63 0.84 40
9 06/17/2014 10:51:42 -63.66, 57.86 92.54 06/17/2014 10:52:17 -63.65, 57.84 92.57 1.59 35
10 06/20/2014 02:19:36 60.47, 3.71 90.65 06/20/2014 02:19:25 60.47, 3.73 90.65 1.08 11




NCC Satellite Simultaneous Nadir Overpasses (SNOs) Prediction Service
